Northeast Philadelphia, PA

8:46 PM EDT on September 25, 2017 (GMT -0400)
Northeast Philadelphia

Weather History for KPNE - September, 2012

Change the Weather History Date:

Saturday, September 29, 2012

  Actual Average Record
Temperature  
Mean Temperature 60 °F -  
Max Temperature 64 °F 69 °F 86 °F (2015)
Min Temperature 57 °F 50 °F 42 °F (2000)
Degree Days  
Heating Degree Days 5    
Growing Degree Days 10 (Base 50)    
Moisture  
Dew Point 53 °F    
Average Humidity 77    
Maximum Humidity 88    
Minimum Humidity 65    
Precipitation  
Precipitation 0.00 in - - ()
Sea Level Pressure  
Sea Level Pressure 29.94 in    
Wind  
Wind Speed 6 mph (NW)    
Max Wind Speed 14 mph    
Max Gust Speed -    
Visibility 10 miles    
Events Rain    
Averages and records for this station are not official NWS values.
T = Trace of Precipitation, MM = Missing Value Source: NWS Daily Summary

Daily Weather History Graph

Daily Weather History Graph

Search for Another Location

Airport or City:

Trip Planner

Search our weather history database for the weather conditions in past years. The results will help you decide how hot, cold, wet, or windy it might be!

Date:

Astronomy

Sep. 29, 2012 Rise Set
Actual Time 6:54 AM EDT 6:44 PM EDT
Civil Twilight 6:27 AM EDT 7:11 PM EDT
Nautical Twilight 5:56 AM EDT 7:43 PM EDT
Astronomical Twilight 5:24 AM EDT 8:14 PM EDT
Moon 6:16 PM EDT (9/29) 6:23 AM EDT (9/29)
Length of Visible Light 12h 44m
Length of Day
11h 49m
Full, 100% of the Moon is Illuminated
Sep 29
Full
Sep 29
Full
Oct 8
Last Quarter
Oct 15
New
Oct 21
First Quarter

Hourly Weather History & Observations

Time (EDT) Temp. Dew Point Humidity Pressure Visibility Wind Dir Wind Speed Gust Speed Precip Events Conditions
12:54 AM 63.0 °F 53.1 °F 70% 29.95 in 10.0 mi NW 6.9 mph - N/A   Mostly Cloudy
1:54 AM 62.1 °F 54.0 °F 75% 29.95 in 10.0 mi WNW 4.6 mph - N/A   Overcast
2:28 AM 62.6 °F 53.6 °F 72% 29.95 in 10.0 mi WNW 5.8 mph - N/A   Overcast
2:54 AM 61.0 °F 54.0 °F 78% 29.94 in 10.0 mi NW 5.8 mph - 0.00 in Rain Light Rain
3:12 AM 60.8 °F 55.4 °F 82% 29.95 in 10.0 mi WNW 4.6 mph - 0.00 in   Scattered Clouds
3:22 AM 60.8 °F 55.4 °F 82% 29.95 in 10.0 mi WNW 5.8 mph - 0.00 in   Mostly Cloudy
3:54 AM 61.0 °F 55.0 °F 81% 29.94 in 10.0 mi NW 6.9 mph - 0.00 in   Overcast
4:25 AM 60.8 °F 55.4 °F 82% 29.94 in 10.0 mi WNW 4.6 mph - N/A   Mostly Cloudy
4:37 AM 60.8 °F 55.4 °F 82% 29.94 in 10.0 mi NW 3.5 mph - N/A   Mostly Cloudy
4:54 AM 60.1 °F 55.0 °F 83% 29.95 in 10.0 mi WNW 4.6 mph - N/A   Overcast
5:54 AM 60.1 °F 55.0 °F 83% 29.95 in 10.0 mi NNW 5.8 mph - N/A   Overcast
6:54 AM 59.0 °F 53.1 °F 81% 29.95 in 10.0 mi NW 8.1 mph - N/A   Overcast
7:27 AM 57.2 °F 53.6 °F 88% 29.96 in 10.0 mi NW 5.8 mph - N/A   Overcast
7:54 AM 57.9 °F 52.0 °F 81% 29.97 in 10.0 mi WNW 6.9 mph - N/A   Overcast
8:28 AM 57.2 °F 51.8 °F 82% 29.97 in 10.0 mi NNW 13.8 mph - N/A   Overcast
8:54 AM 59.0 °F 52.0 °F 78% 29.97 in 10.0 mi NNW 6.9 mph - N/A   Overcast
9:32 AM 59.0 °F 51.8 °F 77% 29.97 in 10.0 mi NNW 8.1 mph - N/A   Overcast
9:39 AM 59.0 °F 51.8 °F 77% 29.97 in 10.0 mi NNW 8.1 mph - N/A   Overcast
9:54 AM 60.1 °F 52.0 °F 75% 29.97 in 10.0 mi NW 8.1 mph - N/A   Overcast
10:54 AM 61.0 °F 52.0 °F 72% 29.97 in 10.0 mi NNW 8.1 mph - N/A   Overcast
11:54 AM 60.1 °F 52.0 °F 75% 29.97 in 10.0 mi North 5.8 mph - N/A   Overcast
12:54 PM 61.0 °F 51.1 °F 70% 29.96 in 10.0 mi NNW 9.2 mph - N/A   Overcast
1:54 PM 62.1 °F 51.1 °F 67% 29.94 in 10.0 mi NNW 4.6 mph - N/A   Overcast
2:34 PM 62.6 °F 51.8 °F 68% 29.94 in 10.0 mi NW 6.9 mph - N/A   Overcast
2:54 PM 62.1 °F 51.1 °F 67% 29.92 in 10.0 mi West 6.9 mph - N/A   Overcast
3:54 PM 63.0 °F 51.1 °F 65% 29.91 in 10.0 mi West 4.6 mph - N/A   Mostly Cloudy
4:54 PM 63.0 °F 51.1 °F 65% 29.91 in 10.0 mi NW 5.8 mph - N/A   Overcast
5:54 PM 63.0 °F 51.1 °F 65% 29.91 in 10.0 mi NNW 4.6 mph - N/A   Overcast
6:54 PM 59.0 °F 51.1 °F 75% 29.92 in 10.0 mi WSW 3.5 mph - N/A   Partly Cloudy
7:54 PM 57.9 °F 53.1 °F 84% 29.93 in 10.0 mi Calm Calm - N/A   Overcast
8:54 PM 57.0 °F 51.1 °F 81% 29.92 in 10.0 mi West 3.5 mph - N/A   Partly Cloudy
9:54 PM 57.0 °F 52.0 °F 83% 29.92 in 10.0 mi Calm Calm - N/A   Overcast
10:54 PM 57.0 °F 52.0 °F 83% 29.92 in 10.0 mi WNW 3.5 mph - N/A   Overcast
11:54 PM 57.9 °F 52.0 °F 81% 29.91 in 10.0 mi NW 5.8 mph - N/A   Overcast